Temp_Advection
nan nan nan nan nan nan nan nan nan nan nan nan nan nan nan nan nan nan nan nan nan nan
nan 0 0 0 0 -0 0 -0 -0 -0 0 0 0 0 -0 -0 0 0 0 -0 -0 nan
nan 0 0 0 0 0 -0 -0 -0 -0 0 0 0 0 0 0 0 0 -0 -0 -0 nan
nan 0 0 0 0 -0 -0 -0 -0 -0 -0 -0 -0 0 0 0 0 -0 -0 0 0 nan
nan 0 0 0 0 -0 -0 -0 -0 -1 -1 -0 -0 -0 0 -0 0 0 -1 -0 -0 nan
nan 0 0 -0 0 0 -0 -0 -0 -0 -1 -1 -0 -0 -0 -0 -0 -0 -0 -0 -0 nan
nan 0 0 0 0 0 0 -0 -0 -0 -0 -1 -0 -0 -0 -0 -1 -0 -0 -0 -0 nan
nan 0 0 0 0 0 0 0 0 -0 -0 -0 -0 -0 -0 -0 -0 -0 -1 -0 0 nan
nan 0 0 0 0 -0 -0 0 0 0 -0 -0 -0 -0 -1 -1 -0 -1 -0 -0 -0 nan
nan 0 0 -0 -0 -0 0 0 0 0 -0 -0 -0 -0 -0 -1 -1 -0 -0 -0 -0 nan
nan 0 -0 -0 -0 -0 0 -0 -0 -0 -0 -0 -0 -0 -0 -1 -1 -0 -0 -0 -0 nan
nan -0 -0 -0 0 -0 -0 -0 -0 -0 -0 -0 -0 -0 -0 -1 -0 -0 -0 -0 -0 nan
nan -0 0 0 -0 -0 -0 -0 -0 -0 -0 -0 -0 -0 -0 -1 -0 -0 -1 -0 -0 nan
nan nan nan nan nan nan nan nan nan nan nan nan nan nan nan nan nan nan nan nan nan nan
Wind_Speed
12 12 13 14 15 16 17 17 18 18 19 19 21 23 23 22 22 23 25 27 27 28
13 13 14 15 16 17 17 18 19 20 21 21 22 22 22 23 24 25 27 28 27 27
13 14 15 16 17 17 17 18 20 21 21 22 21 22 22 23 25 26 26 26 26 27
13 14 15 16 16 17 18 19 20 21 21 21 21 22 23 24 25 25 25 24 26 27
14 14 15 15 15 16 18 19 21 22 21 21 21 22 23 24 23 24 25 25 26 28
16 16 17 16 16 18 19 20 21 21 22 22 22 22 22 22 22 22 23 24 27 29
15 16 17 17 18 19 20 21 22 21 22 22 21 21 22 21 21 21 25 27 31 34
15 16 16 17 18 20 21 21 21 21 22 21 21 21 22 21 24 28 29 31 30 33
14 15 15 17 19 21 20 19 19 18 18 20 21 21 21 22 25 27 31 29 31 30
13 14 16 19 19 19 17 16 17 17 18 20 20 19 20 22 24 26 29 29 29 29
13 16 18 18 18 16 15 16 17 18 19 19 17 17 20 21 24 27 25 26 27 27
15 17 16 16 16 14 15 16 17 18 19 17 17 15 19 20 23 24 25 23 24 25
14 16 15 14 13 14 14 17 17 20 16 15 17 16 18 20 23 25 26 26 24 28
14 14 12 12 12 14 15 16 17 17 14 15 16 19 19 19 20 25 26 27 30 32
Wind_Direction
293 294 293 292 293 298 301 303 304 303 302 299 297 295 295 294 294 291 288 286 284 285
297 293 292 293 295 297 299 300 300 300 299 295 292 292 294 295 293 290 286 285 286 287
296 293 294 295 295 296 298 299 300 298 295 291 290 292 294 293 291 288 287 289 289 288
295 292 293 295 297 300 301 305 304 299 295 292 292 294 294 293 293 290 290 289 288 287
296 295 295 297 298 301 304 305 306 303 297 294 293 296 296 296 294 293 292 291 289 290
293 297 299 299 302 304 307 306 306 304 300 296 297 299 298 296 293 292 295 296 296 296
289 292 293 295 298 300 300 303 305 304 300 295 297 295 294 293 295 297 299 299 300 302
287 287 288 291 291 290 295 300 301 299 296 294 295 291 295 303 304 301 298 299 303 302
284 287 289 288 289 294 297 303 303 299 302 299 294 290 288 290 294 293 297 298 299 297
288 288 288 292 296 299 304 305 305 305 304 303 301 297 294 295 293 293 297 299 300 300
285 290 294 295 302 308 304 307 312 317 319 315 310 308 299 299 294 296 298 298 302 299
290 294 299 303 309 307 309 314 322 323 322 317 317 315 309 302 299 297 307 311 308 305
298 303 304 307 309 314 316 320 319 323 319 319 320 317 314 306 302 308 309 313 307 309
307 307 304 307 317 319 317 313 318 319 318 322 325 328 319 310 304 308 309 314 313 310
Height
1479 1479 1478 1478 1478 1477 1475 1474 1473 1472 1470 1470 1469 1469 1468 1466 1465 1466 1466 1467 1468 1466
1475 1475 1475 1474 1473 1472 1471 1469 1468 1466 1465 1464 1464 1464 1462 1460 1460 1460 1461 1460 1458 1456
1470 1470 1470 1469 1469 1467 1466 1464 1462 1461 1460 1459 1459 1458 1456 1455 1455 1454 1453 1451 1450 1449
1466 1466 1465 1464 1464 1463 1461 1458 1456 1455 1455 1453 1453 1452 1450 1450 1449 1447 1445 1445 1443 1443
1461 1461 1461 1460 1459 1458 1456 1454 1452 1451 1449 1448 1447 1447 1445 1443 1442 1440 1439 1438 1438 1436
1456 1456 1456 1455 1454 1453 1452 1450 1448 1446 1444 1442 1442 1441 1439 1437 1435 1434 1433 1432 1431 1430
1453 1452 1452 1450 1450 1450 1449 1446 1443 1440 1438 1437 1436 1434 1433 1431 1429 1428 1426 1425 1424 1422
1450 1449 1448 1447 1447 1446 1443 1440 1437 1435 1434 1432 1430 1428 1426 1425 1423 1421 1419 1417 1416 1413
1445 1445 1444 1443 1442 1439 1437 1434 1432 1431 1428 1425 1424 1422 1421 1420 1417 1416 1413 1411 1408 1405
1440 1439 1439 1438 1436 1434 1431 1429 1428 1425 1422 1419 1417 1415 1414 1413 1411 1409 1406 1403 1400 1396
1436 1435 1434 1432 1430 1427 1426 1425 1422 1418 1416 1413 1411 1408 1407 1406 1404 1401 1399 1396 1392 1388
1432 1430 1428 1426 1424 1424 1422 1419 1415 1413 1411 1408 1406 1403 1402 1400 1397 1394 1391 1388 1385 1381
1428 1425 1423 1421 1421 1419 1416 1413 1411 1409 1407 1404 1401 1398 1396 1395 1392 1388 1385 1381 1377 1373
1423 1420 1419 1417 1416 1414 1411 1409 1407 1405 1402 1400 1397 1393 1391 1389 1386 1382 1378 1373 1369 1365